Tracking 27423 objects as of 8-Jun-2023
HD Live streaming from Space Station
objects crossing your sky now

TRANSIT 2A

Track TRANSIT 2A now!
10-day predictions
TRANSIT 2A is classified as:


NORAD ID: 45
Int'l Code: 1960-007A
Perigee: 598.2 km
Apogee: 971.4 km
Inclination: 66.7 °
Period: 100.4 minutes
Semi major axis: 7155 km
RCS: 0.4368 m2 (medium)
Launch date: June 22, 1960
Source: United States (US)
Launch site: AIR FORCE EASTERN TEST RANGE (AFETR)
Your satellite tracking list
Your tracking list is empty




NASA's NSSDC Master Catalog

Two Line Element Set (TLE):
1 00045U 60007A   23158.87877707  .00000160  00000-0  65499-4 0  9996
2 00045  66.6954  39.8451 0260814 246.0972 111.2609 14.34221403221445
Source of the keplerian elements: AFSPC